Location: Unspecified
(0.0000°N, 0.0000°E)
Time: 19:23:45
(UTC+00:00)

Transit 2A - Pass Details

Date: 02 June 2019
Orbit: 596 x 962 km, 66.7° (Epoch: 18 August)

Event Time Altitude Azimuth Distance (km) Brightness Sun altitude
Rises 02:58:01 0° 184° (S) 3,286 - -40.9°
Reaches altitude 10° 03:00:31 10° 175° (S) 2,413 - -40.4°
Maximum altitude 03:05:40 38° 109° (ESE) 1,312 - -39.2°
Exits shadow 03:07:28 31° 72° (ENE) 1,516 7.9 -38.8°
Drops below altitude 10° 03:11:14 10° 42° (NE) 2,607 9.4 -38.0°
Sets 03:14:01 0° 35° (NE) 3,583 10.2 -37.4°
